logo
Search for airport 
image banner adimage banner adimage banner ad
image banner ad

DIKB - Bouake

Located in , Cote D'Ivoire

ICAO - , IATA -

Data provided by Airmate  

General information

Coordinates: N7°45'9" W5°4'4"
Elevation is 1231 feet MSL.
Magnetic variation is -5° East
View others Airports in Vallée du Bandama

Operational data

Special qualification required
Current time UTC:
Current local time:
Weather at : DIBK - Bouake ( 0 km )
METAR: DIBK 251600Z 10006KT 9999 SCT013 24/21 Q1011 NOSIG
TAF: TAF AMD DIBK 251314Z 2513/2612 17010KT 9999 SCT013 TEMPO 2513/2516 4000 TSRA BKN010 FEW023CB BKN030 PROB30 TEMPO 2516/2520 TS BKN012 FEW023CB PROB40 2605/2609 4000 BR BKN010 BECMG 2608/2609 BKN012
View NOTAMs / SUP AIP / TFR affecting this airport [VIEW]
Communications frequencies: [VIEW]

Runways:

RWY identifierQFULength (ft)Width (ft)SurfaceLDA (ft)
2110827148ASPH
0310827148ASPH

Airport contact information

Address: Cote D'Ivoire

Satellite view of DIKB